VJA1997 KEYW-KMIA

Flight info

Callsign VJA1997
Flight time N/A
Altitude FL170
Route BUFTT1 BUFTT PYREX SNDBR3
Aircraft B703/L-S/N

Departure

Time 2026-05-07 04:40
Airport Key West International Airport (KEYW)

Arrival

Time N/A
Airport Miami International Airport (KMIA)
Time Latitude Longitude Altitude Speed Heading
2026-05-07 04:31 24.55372 -81.75550 11 ft 0 kts 270°
2026-05-07 04:35 24.55372 -81.75551 11 ft 0 kts 270°
2026-05-07 04:35 24.55373 -81.75558 11 ft 3 kts 274°
2026-05-07 04:35 24.55381 -81.75577 11 ft 1 kts 321°
2026-05-07 04:36 24.55390 -81.75581 11 ft 1 kts 342°
2026-05-07 04:36 24.55404 -81.75584 11 ft 5 kts 355°
2026-05-07 04:36 24.55406 -81.75584 11 ft 5 kts 356°
2026-05-07 04:36 24.55463 -81.75584 11 ft 8 kts
2026-05-07 04:37 24.55513 -81.75610 12 ft 9 kts 292°
2026-05-07 04:37 24.55513 -81.75696 11 ft 15 kts 268°
2026-05-07 04:37 24.55509 -81.75843 11 ft 23 kts 269°
2026-05-07 04:37 24.55507 -81.76009 11 ft 29 kts 270°
2026-05-07 04:38 24.55507 -81.76242 12 ft 36 kts 269°
2026-05-07 04:38 24.55506 -81.76436 11 ft 40 kts 266°
2026-05-07 04:38 24.55523 -81.76652 11 ft 0 kts
2026-05-07 04:39 24.55537 -81.76651 11 ft 9 kts
2026-05-07 04:39 24.55600 -81.76632 11 ft 10 kts 72°
2026-05-07 04:39 24.55606 -81.76601 12 ft 0 kts 84°
2026-05-07 04:40 24.55607 -81.76441 12 ft 60 kts 89°
2026-05-07 04:40 24.55613 -81.75660 12 ft 143 kts 90°
2026-05-07 04:40 24.55588 -81.74418 349 ft 171 kts 92°
2026-05-07 04:40 24.55582 -81.72938 869 ft 223 kts 84°
2026-05-07 04:41 24.55761 -81.71047 1211 ft 272 kts 76°
2026-05-07 04:41 24.56602 -81.69145 1546 ft 287 kts 51°
2026-05-07 04:41 24.58148 -81.67752 2078 ft 294 kts 28°
2026-05-07 04:41 24.60107 -81.67140 2607 ft 295 kts
2026-05-07 04:42 24.62125 -81.67337 3150 ft 291 kts 349°
2026-05-07 04:42 24.64055 -81.67946 3674 ft 288 kts 342°
2026-05-07 04:42 24.65907 -81.68727 4195 ft 284 kts 339°
2026-05-07 04:42 24.67702 -81.69575 4716 ft 279 kts 337°
2026-05-07 04:43 24.69507 -81.70371 5231 ft 283 kts 346°
2026-05-07 04:43 24.71349 -81.70457 5730 ft 284 kts
2026-05-07 04:43 24.73076 -81.69760 6237 ft 284 kts 30°
2026-05-07 04:43 24.74694 -81.68510 6773 ft 287 kts 40°
2026-05-07 04:44 24.76188 -81.67053 7299 ft 290 kts 45°
2026-05-07 04:44 24.77632 -81.65495 7830 ft 293 kts 47°
2026-05-07 04:44 24.79055 -81.63888 8359 ft 295 kts 48°
2026-05-07 04:44 24.80482 -81.62258 8884 ft 298 kts 46°
2026-05-07 04:45 24.82082 -81.60796 9417 ft 301 kts 39°
2026-05-07 04:45 24.83795 -81.59460 9947 ft 304 kts 36°
2026-05-07 04:45 24.85547 -81.58173 10480 ft 305 kts 34°
2026-05-07 04:45 24.87326 -81.56898 11006 ft 306 kts 34°
2026-05-07 04:46 24.89117 -81.55632 11529 ft 307 kts 34°
2026-05-07 04:46 24.90919 -81.54370 12055 ft 308 kts 34°
2026-05-07 04:46 24.92723 -81.53115 12578 ft 307 kts 34°
2026-05-07 04:46 24.94524 -81.51869 13100 ft 307 kts 34°
2026-05-07 04:47 24.96318 -81.50620 13619 ft 305 kts 34°
2026-05-07 04:47 24.98096 -81.49374 14143 ft 301 kts 34°
2026-05-07 04:47 24.99647 -81.48280 14607 ft 299 kts 34°
2026-05-07 04:47 25.01149 -81.47223 15060 ft 311 kts 33°
2026-05-07 04:48 25.02928 -81.45968 15574 ft 329 kts 33°
2026-05-07 04:48 25.04826 -81.44632 16089 ft 348 kts 33°
2026-05-07 04:48 25.06866 -81.43193 16617 ft 347 kts 32°
2026-05-07 04:48 25.08866 -81.41784 17136 ft 337 kts 32°
2026-05-07 04:49 25.10818 -81.40403 17413 ft 336 kts 32°
2026-05-07 04:49 25.12780 -81.38982 17425 ft 341 kts 32°
2026-05-07 04:49 25.14768 -81.37523 17429 ft 347 kts 32°